"Time","Value","Approval","myLocation"
"2023-05-06 00:00",16.793632305509,"Approved","OW301"
"2023-05-06 01:00",16.7896330796026,"Approved","OW301"
"2023-05-06 02:00",16.7896338536963,"Approved","OW301"
"2023-05-06 03:00",16.78863462779,"Approved","OW301"
"2023-05-06 04:00",16.7886354018836,"Approved","OW301"
"2023-05-06 05:00",16.7896361759773,"Approved","OW301"
"2023-05-06 06:00",16.785636950071,"Approved","OW301"
"2023-05-06 07:00",16.7846377241646,"Approved","OW301"
"2023-05-06 08:00",16.7826384982583,"Approved","OW301"
"2023-05-06 09:00",16.782639272352,"Approved","OW301"
"2023-05-06 10:00",16.7816400464456,"Approved","OW301"
"2023-05-06 11:00",16.7806408205393,"Approved","OW301"
"2023-05-06 12:00",16.780641594633,"Approved","OW301"
"2023-05-06 13:00",16.7826423687266,"Approved","OW301"
"2023-05-06 14:00",16.7836431428203,"Approved","OW301"
"2023-05-06 15:00",16.7946439169139,"Approved","OW301"
"2023-05-06 16:00",16.7876446910076,"Approved","OW301"
"2023-05-06 17:00",16.7856454651013,"Approved","OW301"
"2023-05-06 18:00",16.7906462391949,"Approved","OW301"
"2023-05-06 19:00",16.7896470132886,"Approved","OW301"
"2023-05-06 20:00",16.7876477873823,"Approved","OW301"
"2023-05-06 21:00",16.7876485614759,"Approved","OW301"
"2023-05-06 22:00",16.7886493355696,"Approved","OW301"
"2023-05-06 23:00",16.7896501096633,"Approved","OW301"
"2023-05-07 00:00",16.7896508837569,"Approved","OW301"
"2023-05-07 01:00",16.7906516578506,"Approved","OW301"
"2023-05-07 02:00",16.7906524319443,"Approved","OW301"
"2023-05-07 03:00",16.7906532060379,"Approved","OW301"
"2023-05-07 04:00",16.7916539801316,"Approved","OW301"
"2023-05-07 05:00",16.7926547542253,"Approved","OW301"
"2023-05-07 06:00",16.7906555283189,"Approved","OW301"
"2023-05-07 07:00",16.7916563024126,"Approved","OW301"
"2023-05-07 08:00",16.7916570765063,"Approved","OW301"
"2023-05-07 09:00",16.7926578505999,"Approved","OW301"
"2023-05-07 10:00",16.7926586246936,"Approved","OW301"
"2023-05-07 11:00",16.7936593987873,"Approved","OW301"
"2023-05-07 12:00",16.7936601728809,"Approved","OW301"
"2023-05-07 13:00",16.7936609469746,"Approved","OW301"
"2023-05-07 14:00",16.7956617210682,"Approved","OW301"
"2023-05-07 15:00",16.7996624951619,"Approved","OW301"
"2023-05-07 16:00",16.8006632692556,"Approved","OW301"
"2023-05-07 17:00",16.8006640433492,"Approved","OW301"
"2023-05-07 18:00",16.7986648174429,"Approved","OW301"
"2023-05-07 19:00",16.7996655915366,"Approved","OW301"
"2023-05-07 20:00",16.8006663656302,"Approved","OW301"
"2023-05-07 21:00",16.8006671397239,"Approved","OW301"
"2023-05-07 22:00",16.7986679138176,"Approved","OW301"
"2023-05-07 23:00",16.7956686879112,"Approved","OW301"
"2023-05-08 00:00",16.7946694620049,"Approved","OW301"
"2023-05-08 01:00",16.7976702360986,"Approved","OW301"
"2023-05-08 02:00",16.7946710101922,"Approved","OW301"
"2023-05-08 03:00",16.7966717842859,"Approved","OW301"
"2023-05-08 04:00",16.7996725583796,"Approved","OW301"
"2023-05-08 05:00",16.8066733324732,"Approved","OW301"
"2023-05-08 06:00",16.8006741065669,"Approved","OW301"
"2023-05-08 07:00",16.8006748806606,"Approved","OW301"
"2023-05-08 08:00",16.7976756547542,"Approved","OW301"
"2023-05-08 09:00",16.7976764288479,"Approved","OW301"
"2023-05-08 10:00",16.7956772029416,"Approved","OW301"
"2023-05-08 11:00",16.7956779770352,"Approved","OW301"
"2023-05-08 12:00",16.7946787511289,"Approved","OW301"
"2023-05-08 13:00",16.8066795252225,"Approved","OW301"
"2023-05-08 14:00",16.8036802993162,"Approved","OW301"
"2023-05-08 15:00",16.8026810734099,"Approved","OW301"
"2023-05-08 16:00",16.8006818475036,"Approved","OW301"
"2023-05-08 17:00",16.7986826215972,"Approved","OW301"
"2023-05-08 18:00",16.7976833956909,"Approved","OW301"
"2023-05-08 19:00",16.7976841697845,"Approved","OW301"
"2023-05-08 20:00",16.7986849438782,"Approved","OW301"
"2023-05-08 21:00",16.7976857179719,"Approved","OW301"
"2023-05-08 22:00",16.7986864920655,"Approved","OW301"
"2023-05-08 23:00",16.7976872661592,"Approved","OW301"
"2023-05-09 00:00",16.7996880402529,"Approved","OW301"
"2023-05-09 01:00",16.8046888143465,"Approved","OW301"
"2023-05-09 02:00",16.8036895884402,"Approved","OW301"
"2023-05-09 03:00",16.8076903625339,"Approved","OW301"
"2023-05-09 04:00",16.8136911366275,"Approved","OW301"
"2023-05-09 05:00",16.8136919107212,"Approved","OW301"
"2023-05-09 06:00",16.8136926848149,"Approved","OW301"
"2023-05-09 07:00",16.8126934589085,"Approved","OW301"
"2023-05-09 08:00",16.8156942330022,"Approved","OW301"
"2023-05-09 09:00",16.8146950070959,"Approved","OW301"
"2023-05-09 10:00",16.8176957811895,"Approved","OW301"
"2023-05-09 11:00",16.8196965552832,"Approved","OW301"
"2023-05-09 12:00",16.8206973293769,"Approved","OW301"
"2023-05-09 13:00",16.8216981034705,"Approved","OW301"
"2023-05-09 14:00",16.8256988775642,"Approved","OW301"
"2023-05-09 15:00",16.8286996516578,"Approved","OW301"
"2023-05-09 16:00",16.8257004257515,"Approved","OW301"
"2023-05-09 17:00",16.8247011998452,"Approved","OW301"
"2023-05-09 18:00",16.8237019739388,"Approved","OW301"
"2023-05-09 19:00",16.8257027480325,"Approved","OW301"
"2023-05-09 20:00",16.8237035221262,"Approved","OW301"
"2023-05-09 21:00",16.8207042962198,"Approved","OW301"
"2023-05-09 22:00",16.8187050703135,"Approved","OW301"
"2023-05-09 23:00",16.8177058444072,"Approved","OW301"
"2023-05-10 00:00",16.8167066185008,"Approved","OW301"
"2023-05-10 01:00",16.8167073925945,"Approved","OW301"
"2023-05-10 02:00",16.8187081666882,"Approved","OW301"
"2023-05-10 03:00",16.8217089407818,"Approved","OW301"
"2023-05-10 04:00",16.8257097148755,"Approved","OW301"
"2023-05-10 05:00",16.8327104889692,"Approved","OW301"
"2023-05-10 06:00",16.8257112630628,"Approved","OW301"
"2023-05-10 07:00",16.8247120371565,"Approved","OW301"
"2023-05-10 08:00",16.8247128112502,"Approved","OW301"
"2023-05-10 09:00",16.8227135853438,"Approved","OW301"
"2023-05-10 10:00",16.8207143594375,"Approved","OW301"
"2023-05-10 11:00",16.8227151335312,"Approved","OW301"
"2023-05-10 12:00",16.8237159076248,"Approved","OW301"
"2023-05-10 13:00",16.8227166817185,"Approved","OW301"
"2023-05-10 14:00",16.8257174558122,"Approved","OW301"
"2023-05-10 15:00",16.8287182299058,"Approved","OW301"
"2023-05-10 16:00",16.8337190039995,"Approved","OW301"
"2023-05-10 17:00",16.8287197780931,"Approved","OW301"
"2023-05-10 18:00",16.8267205521868,"Approved","OW301"
"2023-05-10 19:00",16.8257213262805,"Approved","OW301"
"2023-05-10 20:00",16.8237221003741,"Approved","OW301"
"2023-05-10 21:00",16.8227228744678,"Approved","OW301"
"2023-05-10 22:00",16.8257236485615,"Approved","OW301"
"2023-05-10 23:00",16.8257244226551,"Approved","OW301"
"2023-05-11 00:00",16.8257251967488,"Approved","OW301"
"2023-05-11 01:00",16.8277259708425,"Approved","OW301"
"2023-05-11 02:00",16.8277267449361,"Approved","OW301"
"2023-05-11 03:00",16.8307275190298,"Approved","OW301"
"2023-05-11 04:00",16.8337282931235,"Approved","OW301"
"2023-05-11 05:00",16.8417290672171,"Approved","OW301"
"2023-05-11 06:00",16.8417298413108,"Approved","OW301"
"2023-05-11 07:00",16.8427306154045,"Approved","OW301"
"2023-05-11 08:00",16.8407313894981,"Approved","OW301"
"2023-05-11 09:00",16.8407321635918,"Approved","OW301"
"2023-05-11 10:00",16.8417329376855,"Approved","OW301"
"2023-05-11 11:00",16.8467337117791,"Approved","OW301"
"2023-05-11 12:00",16.8437344858728,"Approved","OW301"
"2023-05-11 13:00",16.8467352599665,"Approved","OW301"
"2023-05-11 14:00",16.8507360340601,"Approved","OW301"
"2023-05-11 15:00",16.8527368081538,"Approved","OW301"
"2023-05-11 16:00",16.8517375822475,"Approved","OW301"
"2023-05-11 17:00",16.8527383563411,"Approved","OW301"
"2023-05-11 18:00",16.8597391304348,"Approved","OW301"
"2023-05-11 19:00",16.8627399045284,"Approved","OW301"
"2023-05-11 20:00",16.8637406786221,"Approved","OW301"
"2023-05-11 21:00",16.8677414527158,"Approved","OW301"
"2023-05-11 22:00",16.8647422268094,"Approved","OW301"
"2023-05-11 23:00",16.8627430009031,"Approved","OW301"
"2023-05-12 00:00",16.8627437749968,"Approved","OW301"
"2023-05-12 01:00",16.8677445490904,"Approved","OW301"
"2023-05-12 02:00",16.8617453231841,"Approved","OW301"
"2023-05-12 03:00",16.8647460972778,"Approved","OW301"
"2023-05-12 04:00",16.8597468713714,"Approved","OW301"
"2023-05-12 05:00",16.8627476454651,"Approved","OW301"
"2023-05-12 06:00",16.8637484195588,"Approved","OW301"
"2023-05-12 07:00",16.8647491936524,"Approved","OW301"
"2023-05-12 08:00",16.8667499677461,"Approved","OW301"
"2023-05-12 09:00",16.8677507418398,"Approved","OW301"
"2023-05-12 10:00",16.8657515159334,"Approved","OW301"
"2023-05-12 11:00",16.8657522900271,"Approved","OW301"
"2023-05-12 12:00",16.8657530641208,"Approved","OW301"
"2023-05-12 13:00",16.8657538382144,"Approved","OW301"
"2023-05-12 14:00",16.8737546123081,"Approved","OW301"
"2023-05-12 15:00",16.8727553864018,"Approved","OW301"
"2023-05-12 16:00",16.8737561604954,"Approved","OW301"
"2023-05-12 17:00",16.8767569345891,"Approved","OW301"
"2023-05-12 18:00",16.8797577086827,"Approved","OW301"
"2023-05-12 19:00",16.8887584827764,"Approved","OW301"
"2023-05-12 20:00",16.8867592568701,"Approved","OW301"
"2023-05-12 21:00",16.8887600309637,"Approved","OW301"
"2023-05-12 22:00",16.8887608050574,"Approved","OW301"
"2023-05-12 23:00",16.8887615791511,"Approved","OW301"
"2023-05-13 00:00",16.8897623532447,"Approved","OW301"
"2023-05-13 01:00",16.8857631273384,"Approved","OW301"
"2023-05-13 02:00",16.8817639014321,"Approved","OW301"
"2023-05-13 03:00",16.8827646755257,"Approved","OW301"
"2023-05-13 04:00",16.8837654496194,"Approved","OW301"
"2023-05-13 05:00",16.8857662237131,"Approved","OW301"
"2023-05-13 06:00",16.8937669978067,"Approved","OW301"
"2023-05-13 07:00",16.8857677719004,"Approved","OW301"
"2023-05-13 08:00",16.8877685459941,"Approved","OW301"
"2023-05-13 09:00",16.8887693200877,"Approved","OW301"
"2023-05-13 10:00",16.8907700941814,"Approved","OW301"
"2023-05-13 11:00",16.8887708682751,"Approved","OW301"
"2023-05-13 12:00",16.8887716423687,"Approved","OW301"
"2023-05-13 13:00",16.8897724164624,"Approved","OW301"
"2023-05-13 14:00",16.8927731905561,"Approved","OW301"
"2023-05-13 15:00",16.8957739646497,"Approved","OW301"
"2023-05-13 16:00",16.8947747387434,"Approved","OW301"
"2023-05-13 17:00",16.8977755128371,"Approved","OW301"
"2023-05-13 18:00",16.9027762869307,"Approved","OW301"
"2023-05-13 19:00",16.9037770610244,"Approved","OW301"
"2023-05-13 20:00",16.903777835118,"Approved","OW301"
"2023-05-13 21:00",16.9067786092117,"Approved","OW301"
"2023-05-13 22:00",16.8997793833054,"Approved","OW301"
"2023-05-13 23:00",16.894780157399,"Approved","OW301"
"2023-05-14 00:00",16.8937809314927,"Approved","OW301"
"2023-05-14 01:00",16.8917817055864,"Approved","OW301"
"2023-05-14 02:00",16.89678247968,"Approved","OW301"
"2023-05-14 03:00",16.9017832537737,"Approved","OW301"
"2023-05-14 04:00",16.9157840278674,"Approved","OW301"
"2023-05-14 05:00",16.916784801961,"Approved","OW301"
"2023-05-14 06:00",16.9187855760547,"Approved","OW301"
"2023-05-14 07:00",16.9187863501484,"Approved","OW301"
"2023-05-14 08:00",16.916787124242,"Approved","OW301"
"2023-05-14 09:00",16.9147878983357,"Approved","OW301"
"2023-05-14 10:00",16.9137886724294,"Approved","OW301"
"2023-05-14 11:00",16.915789446523,"Approved","OW301"
"2023-05-14 12:00",16.9197902206167,"Approved","OW301"
"2023-05-14 13:00",16.9187909947104,"Approved","OW301"
"2023-05-14 14:00",16.920791768804,"Approved","OW301"
"2023-05-14 15:00",16.9207925428977,"Approved","OW301"
"2023-05-14 16:00",16.9197933169914,"Approved","OW301"
"2023-05-14 17:00",16.910794091085,"Approved","OW301"
"2023-05-14 18:00",16.9057948651787,"Approved","OW301"
"2023-05-14 19:00",16.8997956392724,"Approved","OW301"
"2023-05-14 20:00",16.896796413366,"Approved","OW301"
"2023-05-14 21:00",16.8957971874597,"Approved","OW301"
"2023-05-14 22:00",16.8937979615534,"Approved","OW301"
"2023-05-14 23:00",16.893798735647,"Approved","OW301"
"2023-05-15 00:00",16.8927995097407,"Approved","OW301"
"2023-05-15 01:00",16.8958002838343,"Approved","OW301"
"2023-05-15 02:00",16.902801057928,"Approved","OW301"
"2023-05-15 03:00",16.9148018320217,"Approved","OW301"
"2023-05-15 04:00",16.9208026061153,"Approved","OW301"
"2023-05-15 05:00",16.926803380209,"Approved","OW301"
"2023-05-15 06:00",16.9278041543027,"Approved","OW301"
"2023-05-15 07:00",16.9288049283963,"Approved","OW301"
"2023-05-15 08:00",16.92480570249,"Approved","OW301"
"2023-05-15 09:00",16.9228064765837,"Approved","OW301"
"2023-05-15 10:00",16.9198072506773,"Approved","OW301"
"2023-05-15 11:00",16.914808024771,"Approved","OW301"
"2023-05-15 12:00",16.9148087988647,"Approved","OW301"
"2023-05-15 13:00",16.9138095729583,"Approved","OW301"
"2023-05-15 14:00",16.921810347052,"Approved","OW301"
"2023-05-15 15:00",16.9278111211457,"Approved","OW301"
"2023-05-15 16:00",16.9288118952393,"Approved","OW301"
"2023-05-15 17:00",16.927812669333,"Approved","OW301"
"2023-05-15 18:00",16.9288134434267,"Approved","OW301"
"2023-05-15 19:00",16.9288142175203,"Approved","OW301"
"2023-05-15 20:00",16.926814991614,"Approved","OW301"
"2023-05-15 21:00",16.9288157657077,"Approved","OW301"
"2023-05-15 22:00",16.9288165398013,"Approved","OW301"
"2023-05-15 23:00",16.929817313895,"Approved","OW301"
"2023-05-16 00:00",16.9338180879886,"Approved","OW301"
"2023-05-16 01:00",16.9368188620823,"Approved","OW301"
"2023-05-16 02:00",16.934819636176,"Approved","OW301"
"2023-05-16 03:00",16.9348204102696,"Approved","OW301"
"2023-05-16 04:00",16.9388211843633,"Approved","OW301"
"2023-05-16 05:00",16.941821958457,"Approved","OW301"
"2023-05-16 06:00",16.9448227325506,"Approved","OW301"
"2023-05-16 07:00",16.9518235066443,"Approved","OW301"
"2023-05-16 08:00",16.954824280738,"Approved","OW301"
"2023-05-16 09:00",16.9618250548316,"Approved","OW301"
"2023-05-16 10:00",16.9588258289253,"Approved","OW301"
"2023-05-16 11:00",16.957826603019,"Approved","OW301"
"2023-05-16 12:00",16.9578273771126,"Approved","OW301"
"2023-05-16 13:00",16.9588281512063,"Approved","OW301"
"2023-05-16 14:00",16.9618289253,"Approved","OW301"
"2023-05-16 15:00",16.9658296993936,"Approved","OW301"
"2023-05-16 16:00",16.9588304734873,"Approved","OW301"
"2023-05-16 17:00",16.964831247581,"Approved","OW301"
"2023-05-16 18:00",16.9738320216746,"Approved","OW301"
"2023-05-16 19:00",16.9718327957683,"Approved","OW301"
"2023-05-16 20:00",16.973833569862,"Approved","OW301"
"2023-05-16 21:00",16.9728343439556,"Approved","OW301"
"2023-05-16 22:00",16.9708351180493,"Approved","OW301"
"2023-05-16 23:00",16.971835892143,"Approved","OW301"
"2023-05-17 00:00",16.9678366662366,"Approved","OW301"
"2023-05-17 01:00",16.9718374403303,"Approved","OW301"
"2023-05-17 02:00",16.9768382144239,"Approved","OW301"
"2023-05-17 03:00",16.9838389885176,"Approved","OW301"
"2023-05-17 04:00",16.9888397626113,"Approved","OW301"
"2023-05-17 05:00",16.9978405367049,"Approved","OW301"
"2023-05-17 06:00",16.9928413107986,"Approved","OW301"
"2023-05-17 07:00",16.9858420848923,"Approved","OW301"
"2023-05-17 08:00",16.9818428589859,"Approved","OW301"
"2023-05-17 09:00",16.9808436330796,"Approved","OW301"
"2023-05-17 10:00",16.9788444071733,"Approved","OW301"
"2023-05-17 11:00",16.9798451812669,"Approved","OW301"
"2023-05-17 12:00",16.9788459553606,"Approved","OW301"
"2023-05-17 13:00",16.9838467294543,"Approved","OW301"
"2023-05-17 14:00",16.9828475035479,"Approved","OW301"
"2023-05-17 15:00",16.9808482776416,"Approved","OW301"
"2023-05-17 16:00",16.9788490517353,"Approved","OW301"
"2023-05-17 17:00",16.9768498258289,"Approved","OW301"
"2023-05-17 18:00",16.9768505999226,"Approved","OW301"
"2023-05-17 19:00",16.9738513740163,"Approved","OW301"
"2023-05-17 20:00",16.9728521481099,"Approved","OW301"
"2023-05-17 21:00",16.9718529222036,"Approved","OW301"
"2023-05-17 22:00",16.9768536962973,"Approved","OW301"
"2023-05-17 23:00",16.9688544703909,"Approved","OW301"
"2023-05-18 00:00",16.9668552444846,"Approved","OW301"
"2023-05-18 01:00",16.9688560185783,"Approved","OW301"
"2023-05-18 02:00",16.9728567926719,"Approved","OW301"
"2023-05-18 03:00",16.9758575667656,"Approved","OW301"
"2023-05-18 04:00",16.9808583408592,"Approved","OW301"
"2023-05-18 05:00",16.9878591149529,"Approved","OW301"
"2023-05-18 06:00",16.9878598890466,"Approved","OW301"
"2023-05-18 07:00",16.9898606631402,"Approved","OW301"
"2023-05-18 08:00",16.9908614372339,"Approved","OW301"
"2023-05-18 09:00",16.9918622113276,"Approved","OW301"
"2023-05-18 10:00",16.9928629854212,"Approved","OW301"
"2023-05-18 11:00",16.9938637595149,"Approved","OW301"
"2023-05-18 12:00",16.9948645336086,"Approved","OW301"
"2023-05-18 13:00",16.9978653077022,"Approved","OW301"
"2023-05-18 14:00",16.9998660817959,"Approved","OW301"
"2023-05-18 15:00",17.0098668558896,"Approved","OW301"
"2023-05-18 16:00",17.0128676299832,"Approved","OW301"
"2023-05-18 17:00",17.0148684040769,"Approved","OW301"
"2023-05-18 18:00",17.0198691781706,"Approved","OW301"
"2023-05-18 19:00",17.0178699522642,"Approved","OW301"
"2023-05-18 20:00",17.0208707263579,"Approved","OW301"
"2023-05-18 21:00",17.0228715004516,"Approved","OW301"
"2023-05-18 22:00",17.0258722745452,"Approved","OW301"
"2023-05-18 23:00",17.0268730486389,"Approved","OW301"
"2023-05-19 00:00",17.0338738227325,"Approved","OW301"
"2023-05-19 01:00",17.0298745968262,"Approved","OW301"
"2023-05-19 02:00",17.0318753709199,"Approved","OW301"
"2023-05-19 03:00",17.0398761450135,"Approved","OW301"
"2023-05-19 04:00",17.0388769191072,"Approved","OW301"
"2023-05-19 05:00",17.0418776932009,"Approved","OW301"
"2023-05-19 06:00",17.0418784672945,"Approved","OW301"
"2023-05-19 07:00",17.0438792413882,"Approved","OW301"
"2023-05-19 08:00",17.0468800154819,"Approved","OW301"
"2023-05-19 09:00",17.0438807895755,"Approved","OW301"
"2023-05-19 10:00",17.0448815636692,"Approved","OW301"
"2023-05-19 11:00",17.0458823377629,"Approved","OW301"
"2023-05-19 12:00",17.0468831118565,"Approved","OW301"
"2023-05-19 13:00",17.0488838859502,"Approved","OW301"
"2023-05-19 14:00",17.0528846600439,"Approved","OW301"
"2023-05-19 15:00",17.0578854341375,"Approved","OW301"
"2023-05-19 16:00",17.0578862082312,"Approved","OW301"
"2023-05-19 17:00",17.0578869823249,"Approved","OW301"
"2023-05-19 18:00",17.0578877564185,"Approved","OW301"
"2023-05-19 19:00",17.0558885305122,"Approved","OW301"
"2023-05-19 20:00",17.0588893046059,"Approved","OW301"
"2023-05-19 21:00",17.0578900786995,"Approved","OW301"
"2023-05-19 22:00",17.0588908527932,"Approved","OW301"
"2023-05-19 23:00",17.0568916268869,"Approved","OW301"
"2023-05-20 00:00",17.0658924009805,"Approved","OW301"
"2023-05-20 01:00",17.0598931750742,"Approved","OW301"
"2023-05-20 02:00",17.0598939491678,"Approved","OW301"
"2023-05-20 03:00",17.0608947232615,"Approved","OW301"
"2023-05-20 04:00",17.0688954973552,"Approved","OW301"
"2023-05-20 05:00",17.0748962714488,"Approved","OW301"
"2023-05-20 06:00",17.0738970455425,"Approved","OW301"
"2023-05-20 07:00",17.0718978196362,"Approved","OW301"
"2023-05-20 08:00",17.0728985937298,"Approved","OW301"
"2023-05-20 09:00",17.0728993678235,"Approved","OW301"
"2023-05-20 10:00",17.0739001419172,"Approved","OW301"
"2023-05-20 11:00",17.0759009160108,"Approved","OW301"
"2023-05-20 12:00",17.0779016901045,"Approved","OW301"
"2023-05-20 13:00",17.0829024641982,"Approved","OW301"
"2023-05-20 14:00",17.0819032382918,"Approved","OW301"
"2023-05-20 15:00",17.0849040123855,"Approved","OW301"
"2023-05-20 16:00",17.0859047864792,"Approved","OW301"
"2023-05-20 17:00",17.0859055605728,"Approved","OW301"
"2023-05-20 18:00",17.0849063346665,"Approved","OW301"
"2023-05-20 19:00",17.0869071087602,"Approved","OW301"
"2023-05-20 20:00",17.0899078828538,"Approved","OW301"
"2023-05-20 21:00",17.0909086569475,"Approved","OW301"
"2023-05-20 22:00",17.0889094310412,"Approved","OW301"
"2023-05-20 23:00",17.0879102051348,"Approved","OW301"
"2023-05-21 00:00",17.0879109792285,"Approved","OW301"
"2023-05-21 01:00",17.0909117533222,"Approved","OW301"
"2023-05-21 02:00",17.0939125274158,"Approved","OW301"
"2023-05-21 03:00",17.0959133015095,"Approved","OW301"
"2023-05-21 04:00",17.0969140756031,"Approved","OW301"
"2023-05-21 05:00",17.0969148496968,"Approved","OW301"
"2023-05-21 06:00",17.0999156237905,"Approved","OW301"
"2023-05-21 07:00",17.1029163978841,"Approved","OW301"
"2023-05-21 08:00",17.1009171719778,"Approved","OW301"
"2023-05-21 09:00",17.1029179460715,"Approved","OW301"
"2023-05-21 10:00",17.1029187201651,"Approved","OW301"
"2023-05-21 11:00",17.1069194942588,"Approved","OW301"
"2023-05-21 12:00",17.1059202683525,"Approved","OW301"
"2023-05-21 13:00",17.1089210424461,"Approved","OW301"
"2023-05-21 14:00",17.1089218165398,"Approved","OW301"
"2023-05-21 15:00",17.1119225906335,"Approved","OW301"
"2023-05-21 16:00",17.1179233647271,"Approved","OW301"
"2023-05-21 17:00",17.1149241388208,"Approved","OW301"
"2023-05-21 18:00",17.1129249129145,"Approved","OW301"
"2023-05-21 19:00",17.1139256870081,"Approved","OW301"
"2023-05-21 20:00",17.1129264611018,"Approved","OW301"
"2023-05-21 21:00",17.1109272351955,"Approved","OW301"
"2023-05-21 22:00",17.1119280092891,"Approved","OW301"
"2023-05-21 23:00",17.1169287833828,"Approved","OW301"
"2023-05-22 00:00",17.1109295574765,"Approved","OW301"
"2023-05-22 01:00",17.1109303315701,"Approved","OW301"
"2023-05-22 02:00",17.1099311056638,"Approved","OW301"
"2023-05-22 03:00",17.1119318797575,"Approved","OW301"
"2023-05-22 04:00",17.1159326538511,"Approved","OW301"
"2023-05-22 05:00",17.1189334279448,"Approved","OW301"
"2023-05-22 06:00",17.1209342020384,"Approved","OW301"
"2023-05-22 07:00",17.1209349761321,"Approved","OW301"
"2023-05-22 08:00",17.1209357502258,"Approved","OW301"
"2023-05-22 09:00",17.1199365243194,"Approved","OW301"
"2023-05-22 10:00",17.1209372984131,"Approved","OW301"
"2023-05-22 11:00",17.1229380725068,"Approved","OW301"
"2023-05-22 12:00",17.1219388466004,"Approved","OW301"
"2023-05-22 13:00",17.1229396206941,"Approved","OW301"
"2023-05-22 14:00",17.1289403947878,"Approved","OW301"
"2023-05-22 15:00",17.1269411688814,"Approved","OW301"
"2023-05-22 16:00",17.1299419429751,"Approved","OW301"
"2023-05-22 17:00",17.1389427170688,"Approved","OW301"
"2023-05-22 18:00",17.1329434911624,"Approved","OW301"
"2023-05-22 19:00",17.1359442652561,"Approved","OW301"
"2023-05-22 20:00",17.1389450393498,"Approved","OW301"
"2023-05-22 21:00",17.1419458134434,"Approved","OW301"
"2023-05-22 22:00",17.1399465875371,"Approved","OW301"
"2023-05-22 23:00",17.1399473616308,"Approved","OW301"
"2023-05-23 00:00",17.1369481357244,"Approved","OW301"
"2023-05-23 01:00",17.1379489098181,"Approved","OW301"
"2023-05-23 02:00",17.1379496839118,"Approved","OW301"
"2023-05-23 03:00",17.1389504580054,"Approved","OW301"
"2023-05-23 04:00",17.1389512320991,"Approved","OW301"
"2023-05-23 05:00",17.1429520061928,"Approved","OW301"
"2023-05-23 06:00",17.1429527802864,"Approved","OW301"
"2023-05-23 07:00",17.1429535543801,"Approved","OW301"
"2023-05-23 08:00",17.1469543284737,"Approved","OW301"
"2023-05-23 09:00",17.1469551025674,"Approved","OW301"
"2023-05-23 10:00",17.1449558766611,"Approved","OW301"
"2023-05-23 11:00",17.1439566507547,"Approved","OW301"
"2023-05-23 12:00",17.1489574248484,"Approved","OW301"
"2023-05-23 13:00",17.1489581989421,"Approved","OW301"
"2023-05-23 14:00",17.1519589730357,"Approved","OW301"
"2023-05-23 15:00",17.1539597471294,"Approved","OW301"
"2023-05-23 16:00",17.1529605212231,"Approved","OW301"
"2023-05-23 17:00",17.1539612953167,"Approved","OW301"
"2023-05-23 18:00",17.1529620694104,"Approved","OW301"
"2023-05-23 19:00",17.1609628435041,"Approved","OW301"